Weather History for Salt Lake City, UT

Change the Weather History Date:

Wednesday, February 13, 2013

  Actual Average Record
Temperature  
Mean Temperature 32 °F 33 °F  
Max Temperature 38 °F 42 °F 65 °F (1921)
Min Temperature 25 °F 25 °F -13 °F (1884)
Degree Days  
Heating Degree Days 33 32  
Month to date heating degree days 494 430  
Since 1 July heating degree days 3714 3824  
Cooling Degree Days 0 0  
Month to date cooling degree days 0 0  
Year to date cooling degree days 0 0  
Moisture  
Dew Point 24 °F    
Average Humidity 74    
Maximum Humidity 88    
Minimum Humidity 59    
Precipitation  
Precipitation 0.00 in 0.04 in 0.76 in (1909)
Month to date precipitation 0.22 0.54  
Year to date precipitation 1.74 1.79  
Snow  
Snow 0.00 in 0.50 in 5.80 in (1968)
Month to date snowfall 4.3 5.2  
Since 1 July snowfall 56.7 39.9  
Snow Depth 6.00 in    
Sea Level Pressure  
Sea Level Pressure 30.35 in    
Wind  
Wind Speed 5 mph (ESE)    
Max Wind Speed 14 mph    
Max Gust Speed 16 mph    
Visibility 10 miles    
Events      
T = Trace of Precipitation, MM = Missing Value Source: NWS Daily Summary

Daily Weather History Graph

Daily Weather History Graph

Search for Another Location

Airport:

Trip Planner

Search our weather history database for the weather conditions in past years. The results will help you decide how hot, cold, wet, or windy it might be!

Date:

Astronomy

Feb. 13, 2013 Rise Set
Actual Time 7:24 AM MST 6:00 PM MST
Civil Twilight 6:55 AM MST 6:28 PM MST
Nautical Twilight 6:23 AM MST 7:01 PM MST
Astronomical Twilight 5:51 AM MST 7:32 PM MST
Moon 8:53 AM MST (2/13) 10:09 PM MST (2/13)
Length of Visible Light 11h 32m
Length of Day
10h 36m
Waxing Crescent, 14% of the Moon is Illuminated
Feb 13
Waxing Crescent
Feb 17
First Quarter
Feb 25
Full
Mar 4
Last Quarter
Mar 11
New

Hourly Weather History & Observations

Time (MST) Temp. Windchill Dew Point Humidity Pressure Visibility Wind Dir Wind Speed Gust Speed Precip Events Conditions
12:53 AM 28.0 °F 24.2 °F 21.0 °F 75% 30.43 in 10.0 mi South 3.5 mph - N/A   Overcast
1:53 AM 28.0 °F 21.7 °F 21.0 °F 75% 30.42 in 10.0 mi SSE 5.8 mph - N/A   Overcast
2:53 AM 28.0 °F 22.8 °F 21.9 °F 78% 30.40 in 10.0 mi SE 4.6 mph - N/A   Overcast
3:53 AM 28.0 °F 20.0 °F 21.9 °F 78% 30.37 in 10.0 mi SSE 8.1 mph - N/A   Overcast
4:53 AM 28.4 °F 20.4 °F 21.2 °F 74% 30.30 in 10.0 mi SE 8.1 mph - N/A   Mostly Cloudy
5:53 AM 28.0 °F 22.8 °F 21.9 °F 78% 30.39 in 10.0 mi East 4.6 mph - N/A   Mostly Cloudy
6:53 AM 25.0 °F 17.1 °F 21.9 °F 88% 30.42 in 10.0 mi NNW 6.9 mph - N/A   Overcast
7:53 AM 26.1 °F - 21.0 °F 81% 30.41 in 10.0 mi Calm Calm - N/A   Mostly Cloudy
8:53 AM 28.0 °F 22.8 °F 21.9 °F 78% 30.42 in 10.0 mi South 4.6 mph - N/A   Mostly Cloudy
9:53 AM 30.0 °F 21.7 °F 21.9 °F 72% 30.40 in 10.0 mi SSE 9.2 mph - N/A   Mostly Cloudy
10:53 AM 32.0 °F 24.2 °F 23.0 °F 69% 30.40 in 10.0 mi SE 9.2 mph - N/A   Mostly Cloudy
11:53 AM 35.1 °F 31.0 °F 23.0 °F 61% 30.38 in 10.0 mi SE 4.6 mph - N/A   Mostly Cloudy
12:53 PM 36.0 °F 33.3 °F 25.0 °F 64% 30.35 in 10.0 mi WNW 3.5 mph - N/A   Overcast
1:53 PM 36.0 °F - 25.0 °F 64% 30.33 in 10.0 mi Calm Calm - N/A   Overcast
2:53 PM 35.1 °F 28.6 °F 27.0 °F 72% 30.32 in 10.0 mi North 8.1 mph - N/A   Overcast
3:53 PM 34.0 °F 28.8 °F 27.0 °F 75% 30.31 in 10.0 mi North 5.8 mph - N/A   Overcast
4:53 PM 35.1 °F - 27.0 °F 72% 30.30 in 10.0 mi Calm Calm - N/A   Overcast
5:53 PM 34.0 °F 31.0 °F 27.0 °F 75% 30.29 in 10.0 mi North 3.5 mph - N/A   Overcast
6:53 PM 33.1 °F 28.7 °F 26.1 °F 75% 30.31 in 10.0 mi West 4.6 mph - N/A   Mostly Cloudy
7:53 PM 33.1 °F 28.7 °F 26.1 °F 75% 30.30 in 10.0 mi North 4.6 mph - N/A   Overcast
8:53 PM 32.0 °F 27.5 °F 26.1 °F 79% 30.31 in 10.0 mi North 4.6 mph - N/A   Mostly Cloudy
9:53 PM 32.0 °F 28.7 °F 27.0 °F 82% 30.30 in 9.0 mi NW 3.5 mph - N/A   Mostly Cloudy
10:53 PM 32.0 °F 28.7 °F 27.0 °F 82% 30.30 in 9.0 mi West 3.5 mph - N/A   Overcast
11:53 PM 32.0 °F - 27.0 °F 82% 30.28 in 9.0 mi Calm Calm - N/A   Overcast